KJ6WEG Weather Reports


Display with metric or nautical units.
time (UTC)temp
F
wind
direction
speed
MPH
gust
MPH
rain 1hr
in
rain 24hr
in
rain mn
in
humidity
%
barometer
mb
20260902232553 68 257 4.0 11.0 0.00 0.01 0.01 75 1017.3
20260902232054 68 199 2.0 9.0 0.00 0.01 0.01 76 1017.3
20260902231609 68 206 4.0 12.0 0.00 0.01 0.01 76 1017.4
20260902231055 68 291 4.0 12.0 0.00 0.01 0.01 77 1017.4
20260902230553 68 253 4.0 12.0 0.00 0.01 0.01 76 1017.4
20260902225555 69 246 2.0 12.0 0.00 0.01 0.01 75 1017.6
20260902225055 69 288 3.0 12.0 0.00 0.01 0.01 75 1017.7
20260902224616 69 250 3.0 11.0 0.00 0.01 0.01 75 1017.6
20260902224055 69 269 3.0 10.0 0.00 0.01 0.01 75 1017.6
20260902223554 69 246 3.0 10.0 0.00 0.01 0.01 75 1017.7
20260902223109 69 198 3.0 10.0 0.00 0.01 0.01 76 1017.6
20260902222554 69 212 3.0 9.0 0.00 0.01 0.01 76 1017.7
20260902222054 69 296 2.0 9.0 0.00 0.01 0.01 76 1017.8
20260902221605 69 248 4.0 11.0 0.00 0.01 0.01 76 1017.8
20260902221056 69 275 3.0 11.0 0.00 0.01 0.01 75 1017.8
20260902220554 69 238 2.0 10.0 0.00 0.01 0.01 76 1017.7
20260902220107 69 229 3.0 10.0 0.00 0.01 0.01 78 1018.0
20260902215555 69 238 2.0 10.0 0.00 0.01 0.01 78 1018.0
20260902215055 68 319 4.0 10.0 0.00 0.01 0.01 77 1018.0
20260902214610 69 257 4.0 10.0 0.00 0.01 0.01 77 1018.0
20260902214057 69 225 2.0 9.0 0.00 0.01 0.01 77 1018.0
20260902213554 69 334 3.0 9.0 0.00 0.01 0.01 77 1018.0
20260902213105 69 212 2.0 9.0 0.00 0.01 0.01 75 1018.0
20260902212556 69 246 2.0 10.0 0.00 0.01 0.01 78 1018.1
20260902212055 69 277 3.0 10.0 0.00 0.01 0.01 78 1018.0
20260902211604 69 206 3.0 10.0 0.00 0.01 0.01 78 1018.0
20260902211054 69 249 2.0 9.0 0.00 0.01 0.01 78 1018.1
20260902210554 69 329 2.0 9.0 0.00 0.01 0.01 79 1018.1
20260902210106 69 263 2.0 9.0 0.00 0.01 0.01 80 1018.2
20260902205555 68 200 3.0 11.0 0.00 0.01 0.01 80 1018.1
20260902205055 68 212 2.0 11.0 0.00 0.01 0.01 80 1018.1
20260902204606 68 300 3.0 9.0 0.00 0.01 0.01 80 1018.1
20260902204055 68 239 2.0 10.0 0.00 0.01 0.01 82 1018.1
20260902203555 68 192 2.0 10.0 0.00 0.01 0.01 82 1018.2
20260902203104 68 280 1.0 11.0 0.00 0.01 0.01 82 1018.1
20260902202559 67 236 3.0 11.0 0.00 0.01 0.01 83 1018.2
20260902202054 67 215 3.0 10.0 0.00 0.01 0.01 83 1018.2
20260902201606 67 221 2.0 10.0 0.00 0.01 0.01 84 1018.1
20260902201055 67 269 3.0 12.0 0.00 0.01 0.01 84 1018.3
20260902200554 67 285 3.0 12.0 0.00 0.01 0.01 85 1018.3
20260902200121 66 219 3.0 12.0 0.00 0.01 0.01 86 1018.3
20260902195556 66 326 3.0 11.0 0.00 0.01 0.01 87 1018.4
20260902195056 65 224 3.0 11.0 0.00 0.01 0.01 87 1018.4
20260902194607 66 233 2.0 10.0 0.00 0.01 0.01 89 1018.5
20260902194054 65 273 3.0 10.0 0.00 0.01 0.01 89 1018.6
20260902193557 65 242 3.0 10.0 0.00 0.01 0.01 88 1018.5
20260902193101 65 273 2.0 9.0 0.00 0.01 0.01 89 1018.5
20260902192554 65 221 2.0 9.0 0.00 0.01 0.01 89 1018.5
20260902192057 65 0 2.0 13.0 0.01 0.01 0.01 90 1018.5
20260902191605 65 239 3.0 13.0 0.01 0.01 0.01 89 1018.6
20260902191053 65 227 2.0 9.0 0.01 0.01 0.01 90 1018.6
20260902190555 65 252 2.0 9.0 0.01 0.01 0.01 90 1018.6
20260902190109 65 311 1.0 5.0 0.01 0.01 0.01 90 1018.5
20260902185556 65 311 0.0 4.0 0.01 0.01 0.01 90 1018.5
20260902185054 65 213 1.0 4.0 0.01 0.01 0.01 90 1018.5
20260902184607 65 231 0.0 4.0 0.01 0.01 0.01 89 1018.5
20260902184054 65 266 1.0 6.0 0.01 0.01 0.01 89 1018.5
20260902183554 65 230 1.0 6.0 0.01 0.01 0.01 87 1018.5
20260902183113 65 228 1.0 5.0 0.01 0.01 0.01 87 1018.5
20260902182555 66 233 2.0 5.0 0.01 0.01 0.01 85 1018.5
20260902182055 66 267 1.0 6.0 0.00 0.00 0.00 83 1018.4
20260902181607 66 219 1.0 6.0 0.00 0.00 0.00 81 1018.4
20260902181054 67 245 0.0 7.0 0.00 0.00 0.00 80 1018.3
20260902180554 67 0 3.0 7.0 0.00 0.00 0.00 80 1018.2
20260902180132 67 236 3.0 7.0 0.00 0.00 0.00 80 1018.2
20260902175554 67 241 3.0 13.0 0.00 0.00 0.00 79 1018.1
20260902175056 67 220 4.0 13.0 0.00 0.00 0.00 79 1018.1
20260902174604 67 162 1.0 14.0 0.00 0.00 0.00 79 1018.0
20260902174059 67 200 4.0 14.0 0.00 0.00 0.00 79 1018.0
20260902173555 67 175 6.0 13.0 0.00 0.00 0.00 78 1017.9
20260902173105 67 192 3.0 12.0 0.00 0.00 0.00 78 1017.9
20260902172556 67 192 4.0 12.0 0.00 0.00 0.00 77 1017.8
20260902172056 67 213 2.0 7.0 0.00 0.00 0.00 75 1017.7
20260902171611 67 179 1.0 8.0 0.00 0.00 0.00 76 1017.7
20260902171054 67 217 2.0 9.0 0.00 0.00 0.00 76 1017.7
20260902170555 67 154 4.0 9.0 0.00 0.00 0.00 75 1017.7
20260902170108 67 233 2.0 9.0 0.00 0.00 0.00 75 1017.7
20260902165556 67 217 4.0 9.0 0.00 0.00 0.00 76 1017.7
20260902165052 67 109 4.0 11.0 0.00 0.00 0.00 75 1017.6
20260902164607 67 198 3.0 11.0 0.00 0.00 0.00 75 1017.5
20260902164054 67 221 5.0 11.0 0.00 0.00 0.00 75 1017.6
20260902163556 66 179 3.0 11.0 0.00 0.00 0.00 75 1017.5
20260902163106 66 175 2.0 11.0 0.00 0.00 0.00 76 1017.5
20260902162553 66 148 5.0 9.0 0.00 0.00 0.00 76 1017.5
20260902162054 65 104 3.0 9.0 0.00 0.00 0.00 78 1017.6
20260902161608 64 153 2.0 8.0 0.00 0.00 0.00 78 1017.6
20260902161054 64 140 3.0 10.0 0.00 0.00 0.00 79 1017.5
20260902160556 64 147 3.0 10.0 0.00 0.00 0.00 78 1017.5
20260902160113 64 150 5.0 9.0 0.00 0.00 0.00 79 1017.6
20260902155557 63 82 3.0 7.0 0.00 0.00 0.00 79 1017.5
20260902155054 63 140 3.0 8.0 0.00 0.00 0.00 79 1017.5
20260902154605 63 146 3.0 8.0 0.00 0.00 0.00 80 1017.5
20260902154055 63 128 2.0 7.0 0.00 0.00 0.00 80 1017.5
20260902153555 63 117 3.0 7.0 0.00 0.00 0.00 80 1017.7
20260902153104 62 0 2.0 7.0 0.00 0.00 0.00 81 1017.6
20260902152554 62 117 2.0 7.0 0.00 0.00 0.00 81 1017.7
20260902152054 62 141 3.0 7.0 0.00 0.00 0.00 81 1017.7
20260902151607 62 132 2.0 5.0 0.00 0.00 0.00 81 1017.7
20260902151057 61 128 1.0 7.0 0.00 0.00 0.00 81 1017.6
20260902150557 61 169 2.0 8.0 0.00 0.00 0.00 81 1017.6
20260902150105 61 137 2.0 8.0 0.00 0.00 0.00 81 1017.5
20260902145553 61 134 3.0 7.0 0.00 0.00 0.00 81 1017.4
20260902145055 61 202 3.0 8.0 0.00 0.00 0.00 82 1017.3
20260902144602 61 178 3.0 8.0 0.00 0.00 0.00 82 1017.1
20260902144054 61 150 4.0 8.0 0.00 0.00 0.00 82 1017.0
20260902143557 61 115 3.0 7.0 0.00 0.00 0.00 82 1016.8
20260902143108 61 153 2.0 8.0 0.00 0.00 0.00 82 1016.8
20260902142557 61 128 3.0 9.0 0.00 0.00 0.00 82 1016.8
20260902142053 61 158 2.0 9.0 0.00 0.00 0.00 82 1016.9
20260902141601 61 183 4.0 9.0 0.00 0.00 0.00 82 1016.9
20260902141052 61 138 3.0 8.0 0.00 0.00 0.00 82 1016.8
20260902140556 61 155 4.0 8.0 0.00 0.00 0.00 82 1017.0
20260902135556 61 127 4.0 8.0 0.00 0.00 0.00 82 1016.9
20260902135053 61 183 4.0 8.0 0.00 0.00 0.00 82 1016.8
20260902134608 61 180 4.0 8.0 0.00 0.00 0.00 82 1016.8
20260902134055 61 148 4.0 8.0 0.00 0.00 0.00 83 1016.8
20260902133558 61 157 2.0 5.0 0.00 0.00 0.00 83 1016.8
20260902133102 61 155 2.0 5.0 0.00 0.00 0.00 83 1016.8
20260902132554 61 0 1.0 7.0 0.00 0.00 0.00 83 1016.7
20260902132054 61 114 2.0 9.0 0.00 0.00 0.00 83 1016.6
20260902131604 61 111 3.0 9.0 0.00 0.00 0.00 83 1016.6
20260902131053 61 113 2.0 7.0 0.00 0.00 0.00 83 1016.6
20260902130600 61 140 3.0 7.0 0.00 0.00 0.00 83 1016.7
20260902130106 61 148 2.0 8.0 0.00 0.00 0.00 83 1016.7
20260902125554 61 144 2.0 8.0 0.00 0.00 0.00 83 1016.7
20260902125053 61 152 3.0 7.0 0.00 0.00 0.00 83 1016.6
20260902124608 61 147 3.0 7.0 0.00 0.00 0.00 83 1016.5
20260902124054 62 146 4.0 11.0 0.00 0.00 0.00 83 1016.6
20260902123555 62 168 3.0 11.0 0.00 0.00 0.00 83 1016.6
20260902123104 62 181 4.0 8.0 0.00 0.00 0.00 83 1016.6
20260902122558 62 136 3.0 6.0 0.00 0.00 0.00 83 1016.5
20260902122057 62 167 2.0 7.0 0.00 0.00 0.00 83 1016.5
20260902121613 62 167 3.0 7.0 0.00 0.00 0.00 84 1016.6
20260902121054 61 155 3.0 7.0 0.00 0.00 0.00 85 1016.5
20260902120554 61 161 2.0 7.0 0.00 0.00 0.00 85 1016.6
20260902120107 61 175 2.0 6.0 0.00 0.00 0.00 86 1016.6
20260902115554 61 178 3.0 6.0 0.00 0.00 0.00 86 1016.6
20260902115054 61 153 1.0 4.0 0.00 0.00 0.00 87 1016.6
20260902114605 61 171 2.0 4.0 0.00 0.00 0.00 87 1016.5
20260902114057 61 175 1.0 5.0 0.00 0.00 0.00 87 1016.5
20260902113557 61 175 2.0 5.0 0.00 0.00 0.00 87 1016.6
20260902113110 61 150 2.0 5.0 0.00 0.00 0.00 87 1016.4
20260902112554 61 162 1.0 4.0 0.00 0.00 0.00 87 1016.5
20260902112056 61 130 1.0 4.0 0.00 0.00 0.00 88 1016.4
20260902111605 61 140 0.0 3.0 0.00 0.00 0.00 88 1016.5
20260902111055 61 130 1.0 4.0 0.00 0.00 0.00 88 1016.5
20260902110556 61 99 1.0 4.0 0.00 0.00 0.00 88 1016.5
20260902110121 61 115 2.0 4.0 0.00 0.00 0.00 88 1016.6
20260902105555 61 115 2.0 3.0 0.00 0.00 0.00 88 1016.6
20260902105057 61 111 1.0 3.0 0.00 0.00 0.00 89 1016.7
20260902104602 61 111 1.0 3.0 0.00 0.00 0.00 89 1016.8
20260902104054 61 104 2.0 3.0 0.00 0.00 0.00 89 1016.8
20260902103554 61 119 0.0 3.0 0.00 0.00 0.00 89 1016.8
20260902103105 61 111 0.0 3.0 0.00 0.00 0.00 89 1016.8
20260902102554 61 0 0.0 0.0 0.00 0.00 0.00 89 1016.8
20260902102055 61 0 0.0 0.0 0.00 0.00 0.00 89 1016.8
20260902101607 61 0 0.0 3.0 0.00 0.00 0.00 89 1016.9
20260902101057 61 0 0.0 3.0 0.00 0.00 0.00 89 1016.8
20260902100555 61 105 1.0 3.0 0.00 0.00 0.00 89 1016.7
20260902100113 61 0 1.0 3.0 0.00 0.00 0.00 89 1016.7
20260902095555 61 0 1.0 3.0 0.00 0.00 0.00 89 1016.7
20260902095054 61 110 1.0 3.0 0.00 0.00 0.00 89 1016.7
20260902094619 61 96 1.0 3.0 0.00 0.00 0.00 89 1016.8
20260902094054 61 105 0.0 3.0 0.00 0.00 0.00 89 1016.8
20260902093557 61 0 1.0 3.0 0.00 0.00 0.00 89 1017.0
20260902093105 61 0 1.0 4.0 0.00 0.00 0.00 89 1016.8
20260902092557 61 113 1.0 4.0 0.00 0.00 0.00 89 1016.8
20260902092054 60 105 1.0 4.0 0.00 0.00 0.00 90 1016.9
20260902091600 60 0 0.0 4.0 0.00 0.00 0.00 90 1016.9
20260902091057 60 105 2.0 4.0 0.00 0.00 0.00 90 1016.9
20260902090555 60 100 2.0 4.0 0.00 0.00 0.00 90 1017.0
20260902090104 60 98 1.0 3.0 0.00 0.00 0.00 90 1017.0
20260902085554 60 88 1.0 2.0 0.00 0.00 0.00 90 1016.8
20260902085054 60 0 0.0 3.0 0.00 0.00 0.00 90 1017.0
20260902084624 60 0 0.0 3.0 0.00 0.00 0.00 90 1017.0
20260902084054 60 0 1.0 3.0 0.00 0.00 0.00 89 1017.0
20260902083554 60 105 1.0 4.0 0.00 0.00 0.00 89 1017.0
20260902083101 60 123 1.0 4.0 0.00 0.00 0.00 89 1017.1
20260902082555 60 121 1.0 4.0 0.00 0.00 0.00 89 1017.0
20260902082055 60 0 0.0 0.0 0.00 0.00 0.00 89 1017.1
20260902081607 60 0 0.0 0.0 0.00 0.00 0.00 89 1017.1
20260902081054 60 0 0.0 0.0 0.00 0.00 0.00 89 1017.1
20260902080555 61 0 0.0 3.0 0.00 0.00 0.00 89 1017.2
20260902080104 61 0 0.0 5.0 0.00 0.00 0.00 89 1017.2
20260902075554 61 166 0.0 5.0 0.00 0.00 0.00 89 1017.1
20260902075057 61 0 0.0 4.0 0.00 0.00 0.00 89 1017.1
20260902074607 61 151 0.0 4.0 0.00 0.00 0.00 89 1017.1
20260902074054 61 167 1.0 3.0 0.00 0.00 0.00 89 1017.0
20260902073555 61 0 0.0 3.0 0.00 0.00 0.00 89 1017.0
20260902073102 61 169 0.0 3.0 0.00 0.00 0.00 89 1017.0
20260902072553 61 176 0.0 3.0 0.00 0.00 0.00 89 1017.1
20260902072056 61 0 0.0 2.0 0.00 0.00 0.00 89 1017.0
20260902071606 61 0 0.0 3.0 0.00 0.00 0.00 89 1016.9
20260902071055 61 0 0.0 3.0 0.00 0.00 0.00 89 1017.0
20260902070554 61 169 1.0 4.0 0.00 0.00 0.00 89 1017.0
20260902070116 61 0 1.0 5.0 0.00 0.00 0.00 89 1017.0
20260902065556 61 163 2.0 5.0 0.00 0.00 0.00 89 1017.0
20260902065054 61 176 1.0 4.0 0.00 0.00 0.00 89 1017.0
20260902064610 61 176 0.0 2.0 0.00 0.00 0.00 89 1016.9
20260902064054 61 0 0.0 3.0 0.00 0.00 0.00 89 1017.0
20260902063556 61 0 0.0 4.0 0.00 0.00 0.00 89 1016.9
20260902063109 61 197 0.0 4.0 0.00 0.00 0.00 89 1017.0
20260902062559 61 202 1.0 4.0 0.00 0.00 0.00 89 1016.9
20260902062054 61 240 0.0 2.0 0.00 0.00 0.00 89 1017.0
20260902061610 61 199 0.0 2.0 0.00 0.00 0.00 89 1017.0
20260902061055 61 0 0.0 4.0 0.00 0.00 0.00 89 1017.0
20260902060554 62 228 0.0 4.0 0.00 0.00 0.00 89 1017.1
20260902060114 62 211 1.0 4.0 0.00 0.00 0.00 89 1017.1
20260902055555 62 233 1.0 3.0 0.00 0.00 0.00 89 1017.1
20260902055055 62 0 0.0 3.0 0.00 0.00 0.00 89 1017.1
20260902054602 62 189 0.0 2.0 0.00 0.00 0.00 89 1017.0
20260902054054 62 178 0.0 2.0 0.00 0.00 0.00 89 1017.2
20260902053554 62 0 0.0 3.0 0.00 0.00 0.00 89 1017.2
20260902053121 62 0 0.0 3.0 0.00 0.00 0.00 89 1017.2
20260902052557 62 156 1.0 4.0 0.00 0.00 0.00 89 1017.0
20260902052054 62 209 1.0 4.0 0.00 0.00 0.00 89 1017.1
20260902051605 62 220 1.0 5.0 0.00 0.00 0.00 89 1017.2
20260902051057 62 188 1.0 5.0 0.00 0.00 0.00 89 1017.2
20260902050555 62 214 1.0 5.0 0.00 0.00 0.00 89 1017.3
20260902050121 62 223 1.0 4.0 0.00 0.00 0.00 89 1017.3
20260902045554 62 181 1.0 4.0 0.00 0.00 0.00 89 1017.3
20260902045054 62 0 0.0 5.0 0.00 0.00 0.00 89 1017.4
20260902044606 62 225 0.0 6.0 0.00 0.00 0.00 89 1017.4
20260902044055 62 0 0.0 7.0 0.00 0.00 0.00 89 1017.4
20260902043554 62 225 2.0 7.0 0.00 0.00 0.00 89 1017.4
20260902043107 62 0 2.0 8.0 0.00 0.00 0.00 89 1017.4
20260902042554 62 194 2.0 8.0 0.00 0.00 0.00 88 1017.3
20260902042054 62 250 3.0 8.0 0.00 0.00 0.00 88 1017.2
20260902041615 62 227 2.0 7.0 0.00 0.00 0.00 88 1017.1
20260902041054 62 240 2.0 6.0 0.00 0.00 0.00 88 1017.1
20260902040556 62 239 2.0 7.0 0.00 0.00 0.00 88 1017.1
20260902040106 62 215 1.0 7.0 0.00 0.00 0.00 88 1017.1
20260902035554 62 254 1.0 7.0 0.00 0.00 0.00 88 1017.0
20260902035059 62 236 0.0 8.0 0.00 0.00 0.00 88 1017.1
20260902034605 62 300 1.0 8.0 0.00 0.00 0.00 88 1017.1
20260902034055 63 240 2.0 8.0 0.00 0.00 0.00 88 1016.9
20260902033555 63 238 2.0 8.0 0.00 0.00 0.00 88 1017.0
20260902033110 63 223 2.0 9.0 0.00 0.00 0.00 88 1016.8
20260902032555 63 250 2.0 11.0 0.00 0.00 0.00 88 1016.8
20260902032057 63 223 3.0 11.0 0.00 0.00 0.00 88 1016.7
20260902031607 63 218 3.0 10.0 0.00 0.00 0.00 88 1016.6
20260902031055 63 258 3.0 10.0 0.00 0.00 0.00 88 1016.7
20260902030555 63 265 2.0 9.0 0.00 0.00 0.00 88 1016.6
20260902030112 63 262 2.0 8.0 0.00 0.00 0.00 88 1016.5
20260902025555 63 283 3.0 11.0 0.00 0.00 0.00 88 1016.5
20260902025055 63 186 3.0 11.0 0.00 0.00 0.00 87 1016.5
20260902024608 63 245 3.0 11.0 0.00 0.00 0.00 87 1016.5
20260902024057 63 249 1.0 7.0 0.00 0.00 0.00 87 1016.5
20260902023552 63 253 2.0 8.0 0.00 0.00 0.00 86 1016.4
20260902023102 63 283 2.0 8.0 0.00 0.00 0.00 86 1016.5
20260902022557 63 306 2.0 9.0 0.00 0.00 0.00 85 1016.6
20260902022058 63 0 2.0 9.0 0.00 0.00 0.00 85 1016.6
20260902021605 63 256 2.0 9.0 0.00 0.00 0.00 84 1016.5
20260902021057 63 267 2.0 9.0 0.00 0.00 0.00 84 1016.5
20260902020556 64 243 4.0 9.0 0.00 0.00 0.00 83 1016.4
20260902020109 64 199 1.0 9.0 0.00 0.00 0.00 83 1016.3
20260902015556 64 234 2.0 9.0 0.00 0.00 0.00 83 1016.4
20260902015055 64 250 2.0 9.0 0.00 0.00 0.00 83 1016.4
20260902014601 64 249 2.0 10.0 0.00 0.00 0.00 83 1016.3
20260902014056 64 347 3.0 10.0 0.00 0.00 0.00 83 1016.3
20260902013554 65 200 2.0 10.0 0.00 0.00 0.00 83 1016.3
20260902013107 65 243 2.0 8.0 0.00 0.00 0.00 83 1016.3
20260902012555 65 279 2.0 8.0 0.00 0.00 0.00 83 1016.3
20260902012056 65 246 3.0 8.0 0.00 0.00 0.00 82 1016.2
20260902011602 65 288 2.0 9.0 0.00 0.00 0.00 83 1016.2
20260902011055 65 228 2.0 9.0 0.00 0.00 0.00 82 1016.2
20260902010555 65 296 2.0 12.0 0.00 0.00 0.00 82 1016.1
20260902010116 65 236 3.0 12.0 0.00 0.00 0.00 81 1016.2
20260902005554 66 219 3.0 11.0 0.00 0.00 0.00 80 1016.3
20260902005055 66 221 1.0 11.0 0.00 0.00 0.00 81 1016.2
20260902004607 66 281 2.0 11.0 0.00 0.00 0.00 79 1016.2
20260902004057 66 301 2.0 13.0 0.00 0.00 0.00 79 1016.2
20260902003554 67 335 3.0 13.0 0.00 0.00 0.00 80 1016.2
20260902003103 66 0 4.0 10.0 0.00 0.00 0.00 80 1016.2
20260902002557 67 261 3.0 10.0 0.00 0.00 0.00 79 1016.1
20260902002055 67 276 3.0 9.0 0.00 0.00 0.00 79 1016.1
20260902001630 67 236 3.0 13.0 0.00 0.00 0.00 79 1016.2
20260902001054 67 225 2.0 13.0 0.00 0.00 0.00 79 1016.2
20260902000554 67 298 2.0 13.0 0.00 0.00 0.00 79 1016.2
20260902000104 67 186 4.0 11.0 0.00 0.00 0.00 79 1016.3
20260901235555 68 296 4.0 11.0 0.00 0.00 0.00 77 1016.2
20260901235055 68 275 2.0 10.0 0.00 0.00 0.00 78 1016.2
20260901234605 68 227 3.0 12.0 0.00 0.00 0.00 78 1016.3
20260901234054 68 284 3.0 13.0 0.00 0.00 0.00 76 1016.4
20260901233554 68 307 3.0 13.0 0.00 0.00 0.00 76 1016.4
20260901233106 68 311 2.0 11.0 0.00 0.00 0.00 75 1016.5